Location: Asheville, NC
(35.6000°N, 82.5500°W)
Time: 03:13:09
(UTC-04:00)

CUTE-I - Pass Details

Date: 13 February 2018
Orbit: 810 x 826 km, 98.7° (Epoch: 24 May)

Event Time Altitude Azimuth Distance (km) Brightness Sun altitude
Rises 05:25:03 0° 39° (NE) 3,356 ? -23.7°
Reaches altitude 10° 05:29:17 10° 72° (ENE) 2,420 ? -22.9°
Maximum altitude 05:31:02 12° 91° (E) 2,312 ? -22.5°
Drops below altitude 10° 05:32:47 10° 110° (ESE) 2,418 ? -22.2°
Sets 05:36:59 0° 143° (SE) 3,346 ? -21.3°
